EW6103 Weather Reports


time (UTC)temp
F
wind
direction
speed
knots
gust
knots
rain 1hr
in
rain 24hr
in
rain mn
in
humidity
%
barometer
mb
20260831222006 56 90 0.0 0.9 0.00 0.14 0.00 95 1016.5
20260831221007 56 135 0.0 0.9 0.00 0.14 0.00 96 1016.3
20260831220022 56 90 0.0 0.9 0.00 0.14 0.00 96 1016.3
20260831215005 57 0 0.9 1.7 0.00 0.14 0.14 95 1016.3
20260831213010 56 45 0.0 0.9 0.00 0.14 0.14 95 1016.3
20260831212006 56 270 0.0 1.7 0.00 0.14 0.14 95 1015.9
20260831210012 57 90 0.0 1.7 0.00 0.14 0.14 95 1015.8
20260831205005 57 135 0.0 0.9 0.00 0.14 0.14 95 1015.5
20260831204007 57 0 0.0 0.9 0.00 0.14 0.14 95 1015.3
20260831203007 57 0 0.0 1.7 0.00 0.14 0.14 94 1015.1
20260831202006 57 90 0.0 0.9 0.00 0.14 0.14 94 1015.1
20260831200011 58 90 0.0 0.9 0.00 0.14 0.14 94 1014.9
20260831194008 59 0 0.9 1.7 0.00 0.14 0.14 93 1014.7
20260831193007 59 0 0.9 1.7 0.00 0.14 0.14 93 1015.1
20260831192009 59 90 0.0 0.9 0.00 0.14 0.14 93 1015.2
20260831185008 60 135 0.0 0.9 0.00 0.14 0.14 91 1014.5
20260831183010 62 135 0.0 0.9 0.00 0.14 0.14 89 1014.1
20260831182006 62 0 0.0 0.0 0.00 0.14 0.14 89 1014.3
20260831181011 63 0 0.0 0.9 0.00 0.14 0.14 86 1014.1
20260831175008 65 0 0.0 1.7 0.00 0.14 0.14 81 1013.9
20260831174007 66 90 0.0 1.7 0.00 0.14 0.14 79 1013.7
20260831173018 67 225 0.0 0.0 0.00 0.14 0.14 78 1013.5
20260831171009 69 270 0.9 1.7 0.00 0.14 0.14 73 1013.5
20260831170011 70 270 2.6 3.5 0.00 0.14 0.14 72 1013.3
20260831165006 71 270 3.5 5.2 0.00 0.14 0.14 70 1013.3
20260831163008 72 270 3.5 7.0 0.00 0.14 0.14 67 1013.4
20260831162008 73 270 4.3 7.8 0.00 0.14 0.14 62 1013.3
20260831161007 74 270 5.2 8.7 0.00 0.14 0.14 61 1013.3
20260831160034 75 270 6.1 9.6 0.00 0.14 0.14 60 1013.4
20260831153008 76 135 5.2 7.8 0.00 0.14 0.14 62 1013.5
20260831152009 76 135 7.8 10.4 0.00 0.14 0.14 62 1013.5
20260831151006 76 180 7.0 10.4 0.00 0.14 0.14 64 1013.5
20260831150025 75 270 5.2 8.7 0.00 0.14 0.14 65 1013.6
20260831145008 76 270 6.1 9.6 0.00 0.14 0.14 64 1013.4
20260831144010 77 270 5.2 9.6 0.00 0.14 0.14 66 1013.3
20260831143006 76 270 7.0 9.6 0.00 0.14 0.14 70 1013.5
20260831141011 78 270 7.0 10.4 0.00 0.14 0.14 69 1013.4
20260831140010 76 270 8.7 11.3 0.01 0.14 0.14 70 1013.5
20260831135011 75 270 4.3 7.8 0.01 0.14 0.14 79 1013.6
20260831134015 73 270 4.3 7.8 0.01 0.14 0.14 79 1013.8
20260831133020 72 135 2.6 7.0 0.01 0.14 0.14 79 1013.8
20260831131013 70 135 3.5 4.3 0.01 0.14 0.14 83 1014.0
20260831130013 73 135 4.3 7.8 0.00 0.13 0.13 77 1014.0
20260831125032 74 270 3.5 6.1 0.00 0.13 0.13 79 1013.8
20260831124008 73 270 3.5 5.2 0.00 0.13 0.13 78 1014.1
20260831123027 71 270 2.6 3.5 0.00 0.13 0.13 82 1014.1
20260831122015 73 270 3.5 6.1 0.00 0.13 0.13 81 1014.1
20260831121015 70 135 1.7 3.5 0.00 0.13 0.13 86 1014.3
20260831120011 68 225 0.9 2.6 0.00 0.13 0.13 87 1014.4
20260831115008 67 135 0.9 3.5 0.00 0.13 0.13 86 1014.6
20260831114006 67 225 0.0 1.7 0.00 0.13 0.13 87 1014.7
20260831112006 66 225 0.9 1.7 0.00 0.13 0.13 89 1014.7
20260831111007 67 225 2.6 3.5 0.00 0.13 0.13 90 1014.7
20260831110123 66 180 1.7 2.6 0.00 0.13 0.13 88 1014.8
20260831104007 67 270 1.7 3.5 0.00 0.13 0.13 88 1014.7
20260831103007 67 180 1.7 3.5 0.00 0.13 0.13 88 1014.6
20260831102009 65 180 0.9 3.5 0.00 0.13 0.13 91 1014.6
20260831101006 65 135 0.0 1.7 0.00 0.13 0.13 92 1014.8
20260831100013 64 180 2.6 3.5 0.00 0.13 0.13 94 1014.8
20260831095009 64 180 0.9 2.6 0.00 0.13 0.13 96 1015.1
20260831094006 62 180 0.0 2.6 0.01 0.13 0.13 96 1015.2
20260831093012 62 225 1.7 3.5 0.01 0.13 0.13 96 1015.0
20260831092010 62 180 0.9 2.6 0.03 0.13 0.13 96 1015.0
20260831090012 62 90 0.9 2.6 0.13 0.13 0.13 97 1014.3
20260831085006 62 45 0.9 2.6 0.13 0.13 0.13 97 1014.3
20260831084009 62 270 1.7 4.3 0.12 0.12 0.12 96 1014.5
20260831083008 62 180 2.6 5.2 0.12 0.12 0.12 96 1014.6
20260831082006 62 270 3.5 7.8 0.10 0.10 0.10 96 1014.9
20260831081009 62 270 6.1 9.6 0.08 0.08 0.08 95 1015.1
20260831080011 65 225 3.5 7.0 0.00 0.00 0.00 89 1014.5
20260831075007 65 45 0.0 0.9 0.00 0.00 0.00 86 1012.9
20260831072007 65 45 0.9 2.6 0.00 0.00 0.00 84 1012.5
20260831070015 64 45 0.0 0.9 0.00 0.00 0.00 86 1012.5
20260831065007 64 0 0.9 2.6 0.00 0.00 0.00 87 1012.8
20260831064009 63 0 0.9 2.6 0.00 0.00 0.00 87 1012.8
20260831063008 63 0 0.9 1.7 0.00 0.00 0.00 88 1012.8
20260831062005 63 90 0.0 0.9 0.00 0.00 0.00 89 1012.9
20260831061005 62 90 0.0 1.7 0.00 0.00 0.00 90 1013.0
20260831060011 62 90 0.0 0.9 0.00 0.00 0.00 93 1013.0
20260831053008 60 90 0.0 0.9 0.00 0.00 0.00 95 1013.1
20260831051009 58 90 0.0 0.9 0.00 0.00 0.00 95 1013.0
20260831050014 58 180 0.0 0.0 0.00 0.00 0.00 96 1013.3
20260831045008 57 180 0.0 0.0 0.00 0.00 0.00 96 1013.3
20260831044006 56 180 0.0 0.9 0.00 0.00 0.00 96 1013.3
20260831043007 56 45 0.0 2.6 0.00 0.00 0.00 96 1013.5
20260831042010 56 45 0.0 0.9 0.00 0.00 0.00 96 1013.5
20260831035007 56 0 0.0 0.9 0.00 0.00 0.00 96 1013.7
20260831034005 56 0 0.0 0.9 0.00 0.00 0.00 96 1013.7
20260831033008 55 0 0.0 0.9 0.00 0.00 0.00 96 1013.9
20260831032006 56 0 0.0 0.0 0.00 0.00 0.00 96 1013.9
20260831031006 56 135 0.0 0.9 0.00 0.00 0.00 95 1013.9
20260831030013 56 135 0.0 0.9 0.00 0.00 0.00 95 1013.9
20260831025008 56 180 0.0 0.9 0.00 0.00 0.00 95 1014.0
20260831024006 56 90 0.0 0.0 0.00 0.00 0.00 95 1014.0
20260831023007 57 90 0.0 0.9 0.00 0.00 0.00 95 1014.0
20260831022009 57 90 0.0 1.7 0.00 0.00 0.00 95 1014.0
20260831021011 56 135 0.0 0.9 0.00 0.00 0.00 95 1014.1
20260831015006 57 45 0.0 0.0 0.00 0.00 0.00 94 1014.0
20260831014007 57 45 0.0 0.9 0.00 0.00 0.00 94 1014.0
20260831013011 58 45 0.0 0.9 0.00 0.00 0.00 94 1014.2
20260831011006 58 0 0.9 2.6 0.00 0.00 0.00 93 1014.2
20260831010013 58 0 0.0 0.9 0.00 0.00 0.00 94 1014.3
20260831005006 58 135 0.0 0.9 0.00 0.00 0.00 94 1014.3
20260831004008 58 135 0.0 1.7 0.00 0.00 0.00 94 1014.2
20260831003007 58 180 0.0 0.9 0.00 0.00 0.00 94 1014.3
20260831001006 58 180 0.0 0.9 0.00 0.00 0.00 93 1014.3
20260831000012 58 90 0.0 0.9 0.00 0.00 0.00 93 1014.4
20260830235005 58 0 0.0 0.0 0.00 0.00 0.00 93 1014.4
20260830233009 58 0 0.0 0.9 0.00 0.00 0.00 92 1014.5
20260830232009 59 0 0.0 1.7 0.00 0.00 0.00 91 1014.4
20260830231006 58 270 0.0 0.9 0.00 0.00 0.00 91 1014.5
20260830225008 59 135 0.0 0.9 0.00 0.00 0.00 90 1014.3
20260830224007 59 0 0.0 0.0 0.00 0.00 0.00 89 1014.4
20260830223008 60 0 0.0 0.0 0.00 0.00 0.00 89 1014.5